Temp
-9 -9 -8 -9 -9 -9 -8 -8 -8 -9 -9 -9 -9 -9 -9 -10 -9 -9 -10 -10 -10 -9 -10 -10 -10 -10 -10 -10 -10 -10 -10 -10 -10 -11 -11 -11 -11 -11 -12 -11 -11 -11 -11 -11 -11 -11 -11 -11 -11
-9 -9 -9 -9 -9 -9 -8 -8 -8 -8 -9 -9 -9 -9 -9 -9 -9 -9 -9 -10 -10 -9 -10 -10 -10 -10 -10 -10 -10 -10 -11 -11 -11 -11 -11 -11 -12 -12 -12 -11 -11 -11 -12 -12 -12 -12 -12 -12 -12
-9 -9 -9 -9 -9 -9 -9 -8 -8 -8 -8 -8 -8 -9 -9 -9 -9 -9 -9 -9 -10 -9 -10 -10 -10 -10 -10 -10 -11 -11 -11 -11 -11 -11 -11 -11 -12 -12 -12 -12 -12 -12 -12 -12 -12 -12 -12 -12 -12
-9 -9 -9 -9 -10 -9 -9 -9 -9 -8 -8 -7 -7 -8 -8 -9 -9 -9 -10 -10 -10 -10 -10 -10 -10 -10 -11 -11 -11 -11 -11 -11 -11 -11 -11 -11 -12 -12 -12 -12 -12 -12 -12 -12 -12 -12 -12 -12 -12
-9 -9 -9 -9 -10 -10 -10 -9 -9 -9 -9 -8 -8 -8 -9 -9 -9 -10 -10 -10 -10 -10 -10 -10 -11 -11 -11 -11 -11 -11 -11 -11 -11 -11 -11 -11 -12 -12 -13 -13 -13 -13 -13 -13 -13 -13 -12 -12 -12
-9 -9 -9 -9 -10 -10 -9 -9 -8 -8 -8 -8 -8 -8 -9 -9 -10 -10 -10 -10 -10 -10 -11 -11 -11 -11 -11 -11 -11 -11 -11 -11 -11 -12 -12 -12 -12 -12 -13 -13 -13 -13 -13 -13 -13 -13 -13 -12 -13
-9 -9 -9 -8 -9 -9 -9 -9 -8 -8 -8 -8 -8 -8 -8 -9 -10 -10 -10 -10 -10 -10 -11 -11 -11 -11 -11 -11 -11 -11 -11 -12 -12 -12 -12 -12 -13 -13 -13 -13 -13 -13 -13 -13 -13 -13 -13 -13 -13
-9 -9 -9 -8 -9 -9 -9 -9 -9 -9 -9 -9 -9 -9 -9 -9 -10 -10 -10 -10 -11 -11 -11 -11 -11 -11 -11 -11 -11 -12 -12 -12 -12 -12 -12 -12 -13 -13 -13 -13 -13 -13 -13 -13 -13 -13 -13 -13 -13
-9 -9 -9 -9 -9 -9 -9 -9 -9 -9 -9 -9 -9 -9 -10 -10 -10 -10 -10 -10 -11 -11 -11 -11 -11 -12 -12 -12 -12 -12 -12 -12 -12 -12 -12 -13 -13 -13 -13 -13 -13 -13 -13 -13 -13 -13 -13 -13 -13
-9 -9 -9 -9 -9 -9 -9 -9 -9 -9 -9 -9 -10 -10 -10 -10 -10 -11 -11 -11 -11 -11 -11 -11 -12 -12 -12 -12 -12 -12 -12 -12 -12 -12 -12 -13 -13 -13 -13 -13 -13 -13 -13 -13 -13 -13 -13 -13 -13
-8 -9 -9 -9 -9 -9 -10 -10 -10 -10 -10 -10 -10 -11 -10 -11 -11 -10 -10 -11 -11 -11 -11 -11 -12 -12 -12 -13 -13 -13 -12 -12 -13 -13 -13 -13 -13 -13 -13 -13 -13 -13 -14 -13 -13 -13 -13 -13 -13
-8 -8 -8 -9 -9 -9 -9 -10 -10 -10 -10 -10 -10 -11 -11 -11 -11 -10 -10 -11 -10 -12 -11 -11 -12 -12 -12 -13 -13 -13 -13 -13 -13 -13 -13 -13 -14 -14 -14 -13 -14 -14 -14 -14 -13 -13 -13 -13 -14
-8 -8 -8 -8 -9 -9 -9 -9 -10 -10 -10 -10 -11 -11 -11 -11 -11 -11 -10 -10 -10 -12 -12 -12 -12 -13 -12 -13 -13 -13 -13 -13 -13 -13 -13 -14 -14 -14 -14 -14 -14 -14 -14 -14 -14 -14 -14 -14 -14
-8 -8 -9 -9 -9 -9 -9 -9 -10 -10 -11 -11 -12 -12 -12 -11 -11 -11 -10 -10 -10 -12 -12 -12 -12 -12 -12 -13 -13 -13 -13 -13 -13 -13 -14 -14 -14 -14 -14 -14 -14 -14 -14 -14 -14 -14 -14 -14 -14
-8 -9 -9 -9 -10 -10 -10 -10 -10 -10 -10 -11 -12 -11 -11 -11 -11 -10 -10 -9 -10 -12 -12 -13 -13 -13 -13 -13 -13 -13 -14 -14 -14 -14 -14 -14 -14 -14 -14 -14 -14 -14 -14 -14 -14 -14 -15 -15 -15
-9 -9 -9 -10 -10 -10 -10 -10 -10 -10 -10 -11 -11 -11 -12 -11 -11 -10 -10 -10 -11 -13 -13 -12 -13 -13 -14 -13 -13 -13 -14 -14 -14 -14 -14 -14 -14 -14 -14 -14 -14 -14 -14 -14 -14 -15 -15 -15 -15
-9 -10 -10 -11 -11 -11 -11 -11 -10 -10 -10 -11 -11 -11 -12 -12 -11 -11 -10 -11 -12 -13 -13 -13 -13 -13 -13 -13 -13 -13 -13 -13 -14 -14 -14 -14 -14 -14 -14 -14 -14 -14 -14 -15 -15 -15 -15 -15 -15
-10 -10 -11 -11 -11 -11 -11 -11 -11 -11 -11 -11 -11 -12 -12 -12 -11 -11 -11 -11 -12 -13 -13 -14 -14 -14 -13 -14 -14 -14 -14 -14 -14 -14 -14 -14 -14 -14 -15 -15 -15 -15 -15 -15 -15 -15 -15 -15 -15
-11 -11 -11 -11 -11 -12 -11 -12 -12 -12 -11 -12 -12 -11 -12 -12 -12 -11 -11 -11 -12 -13 -14 -14 -14 -14 -14 -14 -14 -14 -14 -14 -14 -14 -14 -15 -15 -15 -15 -15 -16 -15 -16 -15 -15 -15 -15 -15 -16
-11 -11 -11 -11 -12 -12 -11 -12 -12 -12 -12 -12 -12 -11 -12 -12 -12 -12 -11 -12 -12 -12 -13 -13 -14 -14 -14 -14 -14 -15 -15 -15 -14 -15 -15 -15 -15 -15 -15 -15 -16 -16 -16 -15 -15 -15 -15 -15 -16
-11 -11 -12 -12 -12 -12 -12 -12 -12 -12 -13 -12 -12 -12 -12 -12 -12 -11 -11 -11 -12 -12 -12 -13 -13 -14 -15 -15 -14 -15 -14 -15 -15 -15 -15 -15 -15 -15 -16 -16 -16 -16 -15 -15 -15 -15 -15 -15 -16
-12 -12 -12 -13 -12 -12 -12 -12 -12 -12 -12 -12 -12 -12 -12 -12 -12 -11 -11 -11 -12 -12 -12 -13 -13 -14 -15 -15 -15 -15 -15 -15 -15 -15 -15 -15 -15 -15 -16 -16 -16 -16 -16 -16 -16 -15 -15 -16 -16
-13 -13 -13 -13 -12 -12 -12 -12 -12 -12 -12 -12 -12 -12 -12 -13 -12 -12 -12 -12 -12 -12 -12 -13 -13 -13 -14 -14 -14 -14 -14 -15 -16 -15 -15 -15 -15 -15 -16 -16 -16 -16 -16 -16 -16 -16 -16 -16 -16
-13 -13 -13 -13 -12 -12 -12 -12 -11 -12 -12 -11 -12 -12 -13 -12 -12 -12 -12 -12 -12 -12 -12 -12 -13 -13 -14 -14 -14 -14 -14 -14 -15 -15 -15 -15 -15 -15 -16 -16 -16 -16 -16 -16 -16 -16 -17 -17 -17
-13 -13 -13 -13 -12 -11 -12 -12 -11 -12 -11 -12 -12 -12 -12 -13 -12 -12 -12 -12 -12 -12 -12 -12 -13 -13 -13 -13 -13 -13 -14 -14 -15 -15 -15 -15 -15 -15 -16 -16 -16 -16 -16 -16 -16 -16 -17 -17 -17
-13 -13 -12 -12 -12 -12 -12 -12 -11 -12 -12 -12 -12 -12 -12 -12 -12 -12 -12 -12 -12 -12 -12 -12 -13 -13 -13 -13 -14 -13 -13 -14 -14 -15 -15 -15 -15 -15 -15 -16 -16 -17 -17 -17 -17 -17 -17 -17 -17
-12 -12 -13 -13 -13 -12 -12 -12 -11 -12 -12 -12 -12 -12 -12 -13 -12 -12 -12 -13 -12 -12 -13 -13 -13 -13 -13 -13 -14 -14 -14 -15 -15 -15 -15 -15 -15 -15 -15 -15 -16 -16 -17 -17 -17 -17 -17 -17 -17
-13 -13 -13 -13 -12 -12 -12 -11 -11 -12 -12 -12 -12 -13 -12 -12 -12 -12 -12 -13 -12 -12 -13 -13 -13 -13 -13 -14 -14 -14 -14 -15 -15 -15 -15 -16 -15 -15 -16 -16 -16 -17 -17 -17 -17 -17 -17 -17 -17
-13 -13 -12 -13 -13 -12 -12 -11 -12 -12 -12 -12 -12 -12 -13 -13 -13 -13 -12 -12 -13 -13 -13 -13 -13 -14 -14 -14 -14 -14 -15 -15 -15 -15 -16 -16 -16 -16 -16 -16 -16 -16 -16 -16 -17 -17 -17 -18 -17
-13 -13 -13 -13 -12 -12 -12 -11 -12 -13 -13 -13 -13 -13 -13 -13 -13 -13 -13 -13 -13 -13 -14 -14 -14 -14 -14 -14 -14 -15 -15 -15 -15 -15 -16 -16 -16 -16 -16 -16 -16 -16 -16 -16 -17 -17 -17 -18 -18
Height
5877 5877 5878 5878 5881 5878 5879 5880 5879 5877 5874 5872 5871 5870 5870 5868 5867 5868 5864 5863 5862 5860 5859 5858 5858 5859 5860 5860 5860 5861 5860 5859 5860 5859 5859 5861 5861 5861 5860 5860 5859 5860 5859 5859 5858 5857 5855 5854 5853
5878 5879 5880 5879 5880 5878 5877 5877 5877 5876 5875 5872 5872 5871 5870 5870 5867 5865 5864 5862 5861 5860 5859 5858 5858 5859 5860 5860 5861 5860 5860 5860 5860 5859 5859 5859 5861 5860 5859 5859 5859 5859 5858 5857 5856 5855 5853 5852 5851
5880 5880 5880 5880 5880 5880 5880 5878 5877 5876 5875 5874 5872 5871 5870 5869 5867 5866 5864 5862 5861 5859 5858 5858 5859 5860 5860 5860 5860 5861 5861 5860 5860 5860 5859 5858 5858 5858 5857 5858 5858 5858 5857 5856 5854 5853 5852 5850 5849
5880 5881 5881 5881 5881 5881 5880 5880 5878 5877 5876 5873 5873 5871 5870 5869 5867 5866 5864 5862 5861 5860 5859 5859 5859 5859 5859 5860 5860 5860 5860 5859 5859 5859 5859 5859 5857 5856 5856 5856 5856 5856 5855 5854 5852 5851 5850 5848 5847
5880 5881 5881 5881 5881 5881 5881 5880 5878 5876 5874 5873 5872 5870 5869 5867 5866 5865 5863 5862 5861 5860 5859 5859 5859 5858 5859 5859 5859 5859 5859 5859 5859 5859 5858 5857 5856 5855 5855 5855 5854 5853 5852 5851 5849 5848 5847 5846 5845
5881 5882 5883 5883 5881 5881 5880 5880 5877 5875 5874 5873 5871 5869 5868 5866 5865 5864 5862 5861 5860 5859 5859 5858 5858 5858 5858 5858 5858 5857 5857 5857 5857 5857 5857 5857 5855 5854 5853 5853 5852 5851 5850 5849 5848 5847 5845 5844 5842
5881 5881 5881 5881 5881 5881 5881 5878 5876 5875 5874 5873 5871 5869 5868 5866 5864 5863 5862 5861 5859 5858 5857 5856 5856 5856 5856 5856 5856 5856 5855 5854 5855 5855 5855 5855 5854 5853 5852 5851 5849 5848 5848 5847 5846 5845 5843 5841 5839
5878 5879 5880 5880 5879 5880 5880 5878 5876 5875 5875 5873 5871 5869 5866 5864 5863 5862 5861 5860 5859 5857 5856 5855 5854 5854 5854 5854 5854 5854 5853 5852 5852 5853 5853 5852 5852 5852 5851 5850 5849 5847 5845 5845 5844 5843 5840 5838 5836
5876 5877 5878 5879 5879 5880 5879 5877 5874 5875 5874 5872 5870 5868 5865 5862 5862 5861 5860 5858 5857 5856 5855 5853 5852 5851 5852 5851 5851 5851 5851 5850 5850 5851 5851 5851 5851 5850 5849 5848 5848 5847 5844 5842 5841 5840 5838 5836 5834
5874 5875 5876 5877 5877 5878 5878 5876 5874 5875 5872 5871 5868 5866 5864 5861 5861 5859 5858 5856 5854 5853 5851 5850 5849 5849 5849 5849 5849 5849 5848 5848 5848 5848 5848 5848 5848 5848 5847 5847 5846 5845 5843 5840 5838 5837 5835 5834 5832
5872 5872 5873 5874 5875 5876 5877 5875 5873 5873 5871 5869 5866 5864 5862 5859 5858 5857 5855 5852 5850 5849 5848 5847 5847 5847 5847 5847 5847 5847 5847 5846 5846 5846 5846 5846 5845 5845 5844 5844 5844 5843 5841 5839 5836 5834 5832 5831 5830
5869 5870 5871 5872 5872 5873 5874 5873 5871 5869 5868 5867 5864 5863 5860 5857 5855 5854 5852 5849 5846 5845 5845 5844 5843 5843 5844 5844 5844 5844 5844 5844 5844 5843 5844 5843 5844 5843 5841 5841 5841 5839 5838 5837 5834 5831 5830 5828 5826
5864 5866 5868 5868 5868 5868 5869 5870 5869 5866 5864 5864 5861 5860 5857 5855 5853 5852 5848 5846 5842 5841 5841 5840 5840 5840 5841 5842 5842 5841 5841 5841 5841 5840 5840 5840 5839 5839 5838 5838 5838 5836 5836 5834 5832 5829 5826 5824 5822
5860 5862 5864 5864 5864 5864 5864 5865 5864 5863 5861 5860 5859 5857 5855 5852 5851 5848 5845 5841 5838 5837 5838 5838 5837 5837 5838 5839 5839 5840 5839 5838 5838 5838 5837 5837 5837 5836 5836 5835 5834 5834 5832 5831 5828 5825 5822 5821 5819
5855 5857 5859 5860 5860 5860 5860 5861 5861 5860 5859 5856 5855 5854 5853 5850 5848 5845 5842 5837 5834 5833 5834 5835 5835 5834 5835 5836 5836 5837 5837 5837 5837 5836 5835 5834 5834 5834 5833 5832 5831 5831 5829 5828 5825 5822 5819 5818 5816
5850 5853 5854 5855 5856 5856 5856 5856 5856 5856 5855 5854 5853 5852 5850 5848 5846 5843 5839 5835 5832 5832 5833 5833 5834 5834 5833 5834 5834 5835 5835 5835 5834 5834 5833 5831 5831 5832 5832 5830 5829 5827 5826 5824 5822 5819 5817 5815 5813
5844 5846 5849 5851 5851 5851 5852 5851 5851 5852 5851 5852 5850 5850 5848 5846 5844 5841 5838 5833 5831 5831 5832 5832 5832 5832 5832 5833 5833 5833 5833 5832 5832 5831 5831 5829 5828 5828 5827 5826 5825 5824 5822 5821 5819 5817 5814 5811 5809
5839 5840 5843 5846 5846 5845 5847 5847 5847 5849 5848 5848 5847 5847 5846 5843 5841 5839 5836 5833 5831 5830 5829 5828 5829 5830 5831 5832 5832 5831 5830 5830 5829 5828 5828 5826 5824 5824 5823 5822 5820 5819 5818 5816 5815 5812 5809 5806 5804
5832 5834 5837 5841 5840 5839 5842 5843 5844 5845 5845 5844 5844 5844 5843 5840 5839 5836 5834 5832 5831 5830 5829 5828 5828 5828 5829 5829 5830 5829 5828 5826 5826 5825 5824 5823 5822 5821 5820 5819 5816 5815 5813 5811 5809 5806 5803 5800 5797
5827 5829 5832 5835 5834 5835 5837 5838 5839 5841 5841 5841 5840 5840 5839 5838 5836 5834 5832 5831 5829 5828 5826 5825 5824 5824 5825 5825 5824 5824 5824 5823 5822 5821 5821 5820 5819 5818 5817 5815 5813 5811 5809 5807 5804 5800 5798 5795 5792
5821 5823 5826 5829 5828 5828 5831 5832 5834 5836 5836 5836 5836 5836 5836 5835 5834 5832 5830 5829 5827 5826 5825 5823 5822 5821 5821 5821 5820 5820 5819 5819 5819 5818 5818 5817 5816 5815 5814 5812 5809 5807 5805 5802 5799 5795 5792 5789 5786
5814 5819 5820 5821 5822 5823 5825 5827 5828 5829 5831 5832 5832 5833 5833 5832 5831 5830 5829 5827 5825 5825 5824 5821 5820 5819 5818 5818 5817 5816 5816 5816 5815 5814 5813 5813 5813 5812 5810 5808 5806 5803 5801 5798 5794 5789 5785 5781 5779
5810 5812 5813 5814 5814 5817 5819 5821 5824 5824 5826 5826 5826 5829 5829 5828 5829 5828 5827 5826 5825 5824 5823 5820 5818 5818 5816 5815 5814 5812 5811 5811 5811 5810 5810 5809 5808 5807 5805 5804 5802 5800 5797 5794 5790 5785 5780 5775 5773
5802 5804 5805 5806 5808 5809 5814 5815 5817 5819 5819 5821 5822 5825 5825 5825 5825 5825 5825 5824 5823 5822 5821 5819 5817 5816 5815 5812 5810 5808 5808 5807 5807 5807 5806 5805 5804 5803 5801 5800 5798 5796 5793 5789 5785 5781 5776 5772 5769
5791 5796 5796 5798 5801 5805 5806 5808 5811 5814 5815 5816 5818 5820 5821 5822 5822 5822 5822 5822 5821 5820 5819 5817 5815 5813 5812 5811 5807 5805 5803 5803 5803 5803 5802 5800 5800 5800 5798 5797 5794 5791 5788 5785 5781 5777 5773 5769 5766
5786 5788 5789 5791 5796 5799 5799 5801 5805 5808 5810 5812 5813 5815 5817 5818 5819 5819 5819 5818 5818 5817 5816 5815 5813 5811 5809 5807 5805 5803 5801 5800 5800 5799 5797 5796 5795 5794 5793 5792 5789 5787 5784 5780 5776 5772 5768 5765 5763
5777 5777 5785 5787 5789 5791 5792 5797 5799 5802 5805 5807 5808 5810 5812 5813 5815 5815 5814 5813 5814 5813 5812 5811 5810 5808 5807 5804 5802 5799 5798 5798 5797 5796 5794 5792 5790 5789 5787 5785 5784 5782 5779 5775 5772 5768 5764 5760 5758
5766 5774 5776 5776 5780 5783 5786 5790 5793 5797 5799 5801 5803 5804 5806 5807 5808 5810 5810 5809 5809 5808 5807 5806 5804 5803 5802 5800 5798 5796 5794 5794 5793 5792 5791 5788 5786 5785 5783 5781 5779 5776 5773 5771 5768 5764 5760 5756 5754
5758 5761 5765 5769 5772 5777 5781 5783 5788 5791 5792 5794 5796 5798 5799 5800 5801 5802 5804 5804 5803 5802 5801 5801 5799 5798 5795 5794 5793 5792 5791 5789 5788 5786 5786 5784 5781 5779 5778 5776 5774 5772 5768 5766 5763 5759 5755 5752 5749
5749 5753 5758 5761 5767 5771 5774 5777 5783 5785 5786 5787 5789 5791 5793 5794 5795 5796 5797 5797 5796 5795 5794 5794 5793 5791 5789 5788 5787 5785 5785 5783 5783 5781 5779 5776 5774 5772 5771 5770 5768 5766 5763 5761 5758 5754 5749 5746 5743
Wind_Speed
6 8 9 7 7 6 6 7 8 9 10 12 13 13 12 12 12 13 12 12 12 11 3 5 7 7 5 2 1 3 5 7 6 6 5 3 6 7 5 4 4 5 7 7 8 9 11 11 11
6 5 3 6 6 6 7 9 10 9 9 11 12 12 13 13 13 13 12 11 11 10 4 5 6 5 3 0 0 1 4 7 8 7 7 5 5 4 1 0 2 3 4 6 9 10 10 11 12
6 3 3 4 4 3 4 7 10 12 10 9 11 12 12 12 14 14 13 11 11 9 6 4 4 4 3 2 2 1 3 5 7 7 6 6 5 3 1 2 3 4 6 9 10 10 11 12 14
4 2 2 2 2 2 3 6 10 10 11 13 11 11 12 11 13 14 12 11 10 8 4 1 2 4 4 5 4 5 5 6 7 7 6 5 4 2 1 3 5 6 8 8 9 11 12 14 16
5 6 2 2 3 3 4 5 7 9 12 14 13 13 11 11 12 13 11 11 10 7 4 1 3 5 6 6 6 6 7 7 8 8 4 2 1 1 2 4 6 8 9 10 11 12 14 15 17
3 3 3 4 8 5 5 5 9 11 12 15 16 15 13 11 11 12 12 12 10 7 5 4 6 7 8 7 8 8 8 9 8 8 5 2 3 3 4 5 7 9 10 11 12 13 14 16 17
1 5 7 8 9 7 7 7 10 12 14 13 14 16 17 13 10 11 11 11 10 9 7 7 8 9 9 8 8 9 8 9 9 9 7 6 5 5 6 6 8 9 11 12 13 14 15 16 17
7 7 7 5 4 5 8 11 11 13 15 17 18 19 16 13 10 10 11 11 11 11 9 9 10 9 10 10 10 10 11 10 9 10 9 8 7 7 7 9 10 10 11 13 14 15 16 16 16
10 8 7 6 6 9 12 14 14 14 14 16 17 19 18 16 12 13 13 13 12 12 13 10 12 10 10 9 9 10 12 11 11 11 10 10 9 8 9 11 12 13 12 13 15 16 16 15 15
12 9 8 7 6 11 15 16 17 15 16 15 19 17 16 17 17 14 13 13 13 11 13 13 13 13 10 9 8 9 11 11 12 13 13 11 10 10 11 14 14 15 14 15 15 16 16 16 14
11 9 10 10 9 8 9 14 18 16 15 14 16 17 19 14 13 7 13 13 15 13 11 13 14 14 11 10 9 9 9 10 12 13 13 12 10 10 14 15 15 16 15 16 16 16 17 16 14
13 11 11 11 12 11 11 12 15 16 17 14 17 17 15 13 12 17 14 18 16 16 12 12 13 14 11 10 10 10 10 11 12 13 13 12 12 13 15 14 15 15 17 17 18 18 18 17 16
15 14 13 14 16 16 14 14 15 18 20 15 17 17 13 12 14 16 16 19 16 14 14 12 12 12 10 11 12 11 11 11 12 13 14 13 14 14 16 16 15 15 17 17 18 18 19 18 17
19 17 17 18 18 18 19 17 18 18 17 16 15 13 12 15 16 17 17 16 12 13 11 9 10 10 10 11 12 12 12 13 13 13 14 14 14 16 17 16 17 18 19 18 19 19 20 19 19
23 23 21 19 20 20 20 19 17 18 20 19 13 9 10 13 14 16 18 19 12 11 11 10 11 9 9 10 11 12 13 13 14 14 15 14 14 15 16 18 19 20 22 21 19 19 21 19 20
29 26 25 22 21 21 21 20 19 18 15 4 8 11 10 10 12 16 17 20 10 11 10 9 7 9 10 11 9 12 13 13 13 14 15 15 15 16 18 19 22 23 22 20 21 20 20 20 20
31 31 26 23 23 22 21 20 18 18 9 10 12 12 9 9 12 14 13 5 4 6 8 9 9 11 12 8 9 10 10 12 13 13 15 16 17 18 18 20 21 27 22 20 20 22 23 23 22
33 32 27 23 24 25 22 18 16 14 10 9 14 12 10 9 10 11 8 6 3 4 1 9 8 10 8 10 12 10 10 11 11 13 16 18 18 18 19 20 21 21 22 22 24 26 25 24 24
35 32 28 24 28 28 21 20 17 17 16 15 16 16 12 9 10 13 6 3 5 3 2 5 5 9 11 14 15 15 14 13 12 13 14 15 16 19 20 23 21 21 25 26 26 25 27 25 24
35 32 31 29 29 28 23 22 21 18 20 19 21 17 10 7 10 13 9 2 4 6 5 5 7 9 13 15 18 15 17 15 16 15 15 15 16 17 17 19 21 24 26 24 27 29 30 29 24
35 36 33 29 29 30 25 25 23 22 22 23 21 14 6 5 5 6 4 5 6 7 6 5 6 7 10 13 17 21 25 14 18 16 14 13 15 18 22 24 23 22 25 29 31 33 34 31 25
37 35 32 30 31 31 28 26 24 25 23 22 19 9 11 8 8 4 1 3 6 6 6 6 7 8 11 15 17 18 16 17 17 18 15 14 15 20 22 22 19 23 28 32 34 36 36 30 27
32 31 33 33 35 32 30 28 22 25 20 19 17 10 5 11 11 6 2 2 4 6 6 7 6 7 10 12 15 14 16 21 15 17 16 15 17 20 22 20 23 27 30 33 32 36 35 29 27
35 35 37 37 36 35 28 28 21 18 19 13 12 8 11 9 10 8 4 3 4 6 7 9 8 8 10 11 13 12 19 24 15 15 18 20 19 19 19 20 24 27 29 29 32 35 33 29 26
41 37 40 40 37 28 28 26 20 15 14 12 12 11 10 13 11 9 7 7 7 7 9 9 9 9 10 12 13 13 6 20 14 16 20 22 21 17 18 23 26 26 26 29 33 35 33 30 26
38 39 41 36 29 29 29 24 21 17 17 16 14 13 10 11 11 11 11 11 10 11 10 11 10 10 11 12 11 10 9 10 13 16 21 24 24 19 17 19 24 25 24 32 33 34 32 31 27
40 42 38 37 34 33 30 21 22 19 18 17 16 16 15 15 14 12 11 13 14 14 13 11 11 10 9 11 13 13 10 10 14 17 21 25 27 23 23 22 23 26 28 32 35 34 32 29 28
43 39 40 40 37 32 27 23 24 20 19 19 19 20 20 19 16 13 13 15 17 16 15 14 12 13 13 13 13 14 15 14 16 18 22 27 29 28 26 27 29 28 28 31 37 35 32 29 28
43 43 40 39 38 31 27 25 22 21 23 23 22 23 22 22 21 16 15 15 16 17 18 16 15 16 17 16 15 15 15 19 20 22 23 26 29 29 27 29 22 29 33 34 38 36 33 30 27
42 42 39 37 33 29 28 28 19 19 22 23 25 25 24 23 22 21 17 15 17 15 18 18 18 20 22 20 20 19 18 20 21 24 27 28 30 31 29 29 32 37 37 38 37 34 33 31 29
Wind_Direction
105 123 80 75 70 55 63 81 69 62 71 67 59 55 42 30 28 24 21 8 2 7 29 140 138 142 141 117 73 81 74 62 58 70 71 75 83 81 99 98 74 27 7 351 339 327 324 326 326
99 115 77 77 54 29 16 19 16 32 39 47 46 44 33 19 20 19 15 14 6 13 45 136 148 159 168 226 306 66 60 57 57 58 74 81 87 94 151 5 355 343 336 323 321 320 322 325 325
115 89 96 103 77 51 351 0 0 357 5 19 23 22 23 9 9 8 6 13 12 15 55 127 164 182 203 236 266 292 8 22 36 56 66 86 104 148 232 293 316 329 316 315 319 323 327 326 327
68 79 49 306 48 296 333 357 340 338 354 2 11 8 5 357 359 0 1 1 7 10 41 105 195 212 221 248 271 276 300 326 348 356 32 65 102 137 285 308 300 303 313 314 317 321 323 325 326
81 61 48 7 316 321 318 323 329 348 356 348 358 1 357 354 358 358 355 354 356 354 345 289 244 241 246 250 260 281 291 308 323 325 344 38 123 211 265 288 301 313 312 312 319 325 326 322 322
140 257 267 293 266 293 309 319 334 345 347 349 345 344 350 352 354 354 356 352 345 335 320 279 259 252 251 255 266 272 286 295 299 303 311 292 244 241 265 278 297 304 307 312 319 323 321 320 325
231 271 306 296 297 277 293 338 345 335 337 333 335 333 332 342 342 347 348 344 330 317 297 274 259 255 259 262 265 269 272 278 286 291 287 275 264 268 271 283 291 302 311 315 319 322 321 322 328
269 283 294 300 296 253 267 322 329 332 329 328 332 326 322 324 335 343 337 321 314 301 287 278 267 264 260 260 264 265 268 269 274 277 274 270 269 274 287 288 293 302 309 312 315 319 319 323 326
257 266 272 282 271 274 300 305 303 322 324 331 342 341 328 323 335 334 325 313 313 306 296 279 274 262 262 260 258 263 268 271 272 272 274 278 277 278 284 287 295 299 304 309 314 317 317 319 318
249 259 269 258 258 256 292 293 297 309 314 326 336 335 334 325 327 328 318 300 296 297 297 285 275 269 266 265 265 269 267 269 273 276 272 271 276 280 281 288 297 301 304 309 314 313 312 311 311
255 264 271 277 272 276 287 290 299 303 312 320 330 327 328 325 329 337 339 319 281 283 290 290 280 271 268 263 264 270 278 279 278 279 275 277 275 276 280 290 296 298 303 309 310 309 308 308 306
259 261 269 277 283 288 298 308 307 295 302 318 318 323 318 320 330 322 315 311 298 265 272 280 275 269 262 267 266 266 272 282 281 280 281 281 285 279 280 287 293 301 305 310 310 308 305 306 305
258 262 266 274 282 289 287 300 301 299 305 318 315 316 306 315 320 314 303 315 318 256 265 269 266 264 271 267 267 266 271 277 282 284 285 281 280 282 286 293 297 297 304 308 305 306 307 312 315
262 260 265 272 280 285 287 293 295 294 304 307 301 299 292 302 313 311 311 308 311 251 255 261 261 267 262 267 274 274 272 273 278 280 284 283 283 285 292 298 300 305 307 309 308 311 313 314 316
259 261 264 271 278 281 284 291 288 288 300 294 279 275 287 309 311 310 308 307 305 240 232 254 259 255 270 282 280 275 274 277 279 283 280 283 282 287 294 298 299 305 308 310 310 310 309 307 314
260 262 266 273 276 280 283 284 290 293 307 281 266 286 295 304 308 303 308 315 294 231 230 256 257 284 282 278 273 280 283 286 288 280 276 280 285 290 294 298 303 305 307 311 311 309 308 304 304
262 267 269 273 276 277 281 285 292 303 307 284 297 298 279 287 300 308 331 61 41 215 247 258 264 274 279 273 290 290 298 299 290 279 278 277 284 286 290 295 301 307 307 310 310 312 308 302 297
264 266 267 265 268 266 272 273 281 288 275 288 301 283 270 274 294 315 327 308 166 179 175 260 244 283 293 294 305 292 296 294 288 281 279 280 282 288 295 297 301 302 301 305 309 311 312 306 297
255 259 259 258 258 260 263 264 264 275 266 286 285 277 271 254 274 287 323 316 280 285 16 3 301 296 297 294 297 288 291 289 286 286 283 287 297 295 295 297 298 296 293 299 309 318 321 316 307
249 254 254 253 255 259 258 258 262 263 260 274 281 285 276 231 269 276 296 335 328 316 307 323 318 308 283 280 279 273 279 290 292 289 285 290 295 296 295 290 290 293 300 307 316 318 319 315 310
244 249 250 252 254 258 256 260 262 269 267 271 272 280 220 220 275 277 284 311 338 344 338 312 296 307 307 314 323 306 296 282 289 288 281 289 294 299 296 294 300 306 309 315 317 318 316 309 307
239 244 246 248 249 253 257 261 258 262 263 261 260 242 191 225 276 266 300 333 338 325 325 325 312 321 315 303 308 303 311 283 283 288 286 288 299 297 302 303 307 310 313 316 320 320 318 310 306
241 243 244 243 248 251 255 260 257 260 259 246 236 216 202 215 249 263 286 335 323 306 296 297 313 322 307 303 314 314 311 285 270 279 278 281 297 305 304 303 309 314 316 319 324 328 324 317 307
234 234 242 245 248 251 252 255 250 257 242 233 232 198 190 211 241 255 271 271 283 295 295 292 297 311 306 312 318 304 292 305 265 269 275 289 299 303 305 306 309 315 322 325 327 327 327 317 308
229 229 238 242 245 250 251 255 252 224 228 220 224 222 215 215 242 257 267 275 278 282 292 294 303 304 311 317 317 321 286 283 260 269 279 290 295 307 308 310 314 318 323 324 323 326 324 318 310
232 233 240 245 249 253 254 251 243 223 226 222 231 241 242 229 240 250 264 278 280 286 287 296 305 308 310 317 312 311 299 273 265 265 282 290 297 301 297 307 312 316 312 317 323 324 323 318 311
233 234 239 243 245 248 250 238 237 230 225 233 239 245 246 245 238 246 260 271 276 280 285 292 299 291 298 307 309 312 301 295 290 283 294 290 295 298 293 294 302 305 308 310 319 322 321 316 311
234 240 238 240 241 242 246 237 236 239 241 242 244 247 250 256 255 251 245 260 274 278 279 283 293 291 296 305 297 298 304 294 300 293 289 289 292 294 297 297 302 297 315 302 311 312 317 313 311
233 233 233 234 235 235 241 237 233 239 250 252 247 251 251 254 260 258 259 260 268 274 277 277 277 283 288 291 286 284 286 285 289 294 288 285 288 291 294 295 299 292 303 305 310 308 311 308 309
232 234 238 241 241 241 244 247 245 239 243 255 258 255 257 259 266 272 272 265 266 261 273 277 277 275 278 285 289 286 283 281 280 283 286 285 285 288 292 289 292 287 286 298 309 309 308 309 310